Location: Krasnoyarskiy Pitomnik
(51.1333°N, 71.6167°E)
Time: 22:17:12
(UTC+00:00)

A-11 Canister half - Pass Details

Date: 27 April 2024
Orbit: 1525 x 1683 km, 47.3° (Epoch: 19 May)

Event Time Altitude Azimuth Distance (km) Brightness Sun altitude
Rises 04:17:16 0° 282° (WNW) 4,918 11.2 39.1°
Reaches altitude 10° 04:20:30 10° 279° (W) 3,939 10.8 39.5°
Maximum altitude 04:30:14 55° 206° (SSW) 1,970 10.2 40.8°
Drops below altitude 10° 04:39:56 10° 132° (SE) 3,921 12.3 42.0°
Sets 04:43:09 0° 128° (SE) 4,894 12.5 42.4°
